COSMOS 2491 DEB

Satellite information

Favourite Embed

Satellite Type and Status

DEBRISIN ORBIT

Key statistics

Satellite COSMOS 2491 DEB at a glance.

Uptime

4377

Days in orbit

Revolutions

≈ 12.8

Per day

Orbit

LEO

Low Earth Orbit

Inclination

82.4

Latest

Satellite identification and parameters

Extended collection of information and parameters for COSMOS 2491 DEB.

Object identification

Identified? True

Debris? True

Object name: COSMOS 2491 DEB

International designator: 2013-076F

Object number (NORAD): 44912

Object ID (CCSDS): 44912

Country: COMMONWEALTH OF INDEPENDENT STATES (CIS)

Current information (Y/N): Y

RCS size: SMALL

Orbital parameters

Period: 112.826 minutes

Inclination: 82.44 deg

SMA: 7734.532 km

Apoapsis: 1482.925 km

Periapsis: 1229.869 km

RAAN: 228.588 deg

Eccentricy: 0.01635886

Argument of periapsis: 248.0337 deg

Mean anomaly: 110.3308 deg

Mean motion: 12.76296941 rev/day

Mean motion (dot): 0.00004644 rev/day2

B* drag term: 0.020287458 1/REarth

Two-line elements (TLE)

Creation date: Dec. 14, 2025, 3:07 a.m.

Reference frame: TEME

Reference center: EARTH

Epoch: Dec. 13, 2025, 9 a.m. UTC

TLE line 0: 0 COSMOS 2491 DEB

TLE line 1: 1 44912U 13076F 25347.37508232 .00004644 00000-0 20287-1 0 9996

TLE line 2: 2 44912 82.4400 228.5880 0163589 248.0337 110.3308 12.76296941274176

Live tracking on map

Real-time ground track for satellite COSMOS 2491 DEB.

In-orbit conjunctions

A list of the most updated potential collisions computed for object COSMOS 2491 DEB.

Target Orbit TCA Probability of collision Miss distance Type
COSMOS 1163 LEO 2025-06-12 17:49:26 0.0001056 161.0 (m) PAYLOAD

Associated space launch

COSMOS 2491 DEB was lifted into orbit during the mission ‘Rokot / Briz-KM | 3 x Strela-3M (Kosmos-2488, Kosmos-2489, Kosmos-2490) & Kosmos-2491’, on board a Rokot/Briz-KM space rocket.

The launch took place on Dec. 25, 2013, 12:31 a.m. from 133/3 (133L).

For more information about the launch, click the button.

Launch to space Rokot / Briz-KM | 3 x Strela-3M (Kosmos-2488, Kosmos-2489, Kosmos-2490) & Kosmos-2491
Rokot / Briz-KM | 3 x Strela-3M (Kosmos-2488, Kosmos-2489, Kosmos-2490) & Kosmos-2491

Agency: N/A

Status: Launch Successful

Launch date: Dec. 25, 2013, 12:31 a.m. UTC

Rocket: Rokot/Briz-KM

Launch pad: 133/3 (133L)

Location: Plesetsk Cosmodrome, Russian Federation

...

Latest news about this satellite

There are no fresh news available about this satellite. Check back as we update our databases every day.


Newsletter sign-up

Weekly statistics, charts and insights to help you stay on top of the space industry.